Weather History for Alamosa, CO

Change the Weather History Date:

Sunday, March 10, 2013

  Actual Average Record
Temperature  
Mean Temperature 19 °F 32 °F  
Max Temperature 32 °F 48 °F 73 °F (1989)
Min Temperature 5 °F 16 °F 2 °F (1992)
Degree Days  
Heating Degree Days 46 33  
Month to date heating degree days 332 347  
Since 1 July heating degree days 7119 6676  
Cooling Degree Days 0 0  
Month to date cooling degree days 0 0  
Year to date cooling degree days 0 0  
Moisture  
Dew Point 15 °F    
Average Humidity 77    
Maximum Humidity 100    
Minimum Humidity 53    
Precipitation  
Precipitation 0.01 in 0.01 in 0.17 in (2010)
Month to date precipitation 0.30 0.14  
Year to date precipitation 0.52 0.66  
Snow  
Snow 0.10 in 0.20 in 2.80 in (1968)
Month to date snowfall 3.1 1.5  
Since 1 July snowfall 18.6 19.6  
Snow Depth 3.00 in    
Sea Level Pressure  
Sea Level Pressure 30.10 in    
Wind  
Wind Speed 3 mph (SW)    
Max Wind Speed 9 mph    
Max Gust Speed 10 mph    
Visibility 7 miles    
Events Fog , Snow    
T = Trace of Precipitation, MM = Missing Value Source: NWS Daily Summary

Daily Weather History Graph

Daily Weather History Graph

Search for Another Location

Airport:

Trip Planner

Search our weather history database for the weather conditions in past years. The results will help you decide how hot, cold, wet, or windy it might be!

Date:

Astronomy

Mar. 10, 2013 Rise Set
Actual Time 7:21 AM MDT 7:06 PM MDT
Civil Twilight 6:55 AM MDT 7:32 PM MDT
Nautical Twilight 6:25 AM MDT 8:02 PM MDT
Astronomical Twilight 5:54 AM MDT 8:33 PM MDT
Moon 6:22 AM MDT (3/10) 6:17 PM MDT (3/10)
Length of Visible Light 12h 37m
Length of Day
11h 44m
Waning Crescent, 1% of the Moon is Illuminated
Mar 10
Waning Crescent
Mar 11
New
Mar 19
First Quarter
Mar 27
Full
Apr 2
Last Quarter

Hourly Weather History & Observations

Time (MDT) Temp. Windchill Dew Point Humidity Pressure Visibility Wind Dir Wind Speed Gust Speed Precip Events Conditions
12:06 AM 19.4 °F - 17.6 °F 93% 29.95 in 8.0 mi Calm Calm - N/A   Mostly Cloudy
12:25 AM 19.4 °F 14.3 °F 19.4 °F 100% 29.95 in 10.0 mi SSW 3.5 mph - N/A   Overcast
12:32 AM 19.4 °F 14.3 °F 19.4 °F 100% 29.95 in 8.0 mi South 3.5 mph - N/A   Overcast
12:52 AM 19.9 °F 14.9 °F 19.0 °F 96% 30.04 in 10.0 mi South 3.5 mph - N/A   Overcast
1:28 AM 21.2 °F 16.4 °F 21.2 °F 100% 29.97 in 3.0 mi WSW 3.5 mph - 0.00 in Snow Light Snow
1:30 AM 21.2 °F 14.9 °F 21.2 °F 100% 29.97 in 2.5 mi SW 4.6 mph - 0.00 in Snow Light Snow
1:47 AM 19.4 °F 8.6 °F 19.4 °F 100% 29.98 in 3.0 mi SSW 9.2 mph - 0.00 in Snow Light Snow
1:48 AM 19.9 °F 9.3 °F 19.0 °F 96% 30.06 in 3.0 mi SSW 9.2 mph - 0.00 in Snow Light Snow
1:57 AM 19.4 °F 10.4 °F 17.6 °F 93% 29.97 in 6.0 mi SSW 6.9 mph - 0.00 in   Overcast
3:52 AM 19.9 °F 13.4 °F 16.0 °F 85% 30.05 in 3.0 mi East 4.6 mph - 0.00 in Snow Light Snow
3:58 AM 19.4 °F 12.8 °F 15.8 °F 86% 29.97 in 1.8 mi East 4.6 mph - 0.00 in Snow Light Snow
4:10 AM 19.4 °F 12.8 °F 15.8 °F 86% 29.98 in 2.0 mi East 4.6 mph - 0.00 in Snow Light Snow
4:18 AM 19.4 °F 14.3 °F 17.6 °F 93% 29.98 in 1.2 mi East 3.5 mph - 0.01 in Snow Light Snow
4:44 AM 19.4 °F - 17.6 °F 93% 29.98 in 3.0 mi Calm Calm - 0.01 in Snow Light Snow
4:52 AM 19.0 °F - 17.1 °F 92% 30.08 in 3.0 mi Calm Calm - 0.01 in Snow Light Snow
4:59 AM 19.4 °F - 17.6 °F 93% 29.99 in 2.5 mi Calm Calm - 0.00 in Snow Light Snow
5:06 AM 19.4 °F - 17.6 °F 93% 29.99 in 5.0 mi Calm Calm - N/A Snow Light Snow
5:17 AM 19.4 °F - 17.6 °F 93% 29.99 in 10.0 mi Calm Calm - 0.00 in   Overcast
5:52 AM 17.6 °F 12.3 °F 15.8 °F 93% 30.00 in 10.0 mi WSW 3.5 mph - N/A   Overcast
6:22 AM 14.0 °F 6.5 °F 12.2 °F 93% 30.01 in 10.0 mi West 4.6 mph - N/A   Overcast
6:52 AM 10.9 °F 2.9 °F 10.0 °F 96% 30.16 in 9.0 mi WNW 4.6 mph - N/A   Scattered Clouds
7:15 AM 10.4 °F 2.2 °F 8.6 °F 92% 30.02 in 1.8 mi NW 4.6 mph - N/A   Clear
7:25 AM 8.6 °F -1.3 °F 8.6 °F 100% 30.03 in 0.5 mi WNW 5.8 mph - N/A Fog Light Freezing Fog
7:37 AM 8.6 °F 2.0 °F 6.8 °F 92% 30.03 in 0.2 mi North 3.5 mph - N/A Fog Light Freezing Fog
7:52 AM 10.0 °F - 9.0 °F 95% 30.19 in 0.2 mi Calm Calm - N/A Fog Light Freezing Fog
8:52 AM 8.1 °F 1.4 °F 8.1 °F 100% 30.22 in 1.2 mi SSW 3.5 mph - N/A   Scattered Clouds
8:59 AM 10.4 °F - 10.4 °F 100% 30.06 in 3.0 mi Calm Calm - N/A   Partly Cloudy
9:52 AM 15.8 °F - 12.2 °F 86% 30.07 in 10.0 mi Calm Calm - N/A   Clear
10:52 AM 21.9 °F 14.5 °F 12.0 °F 66% 30.17 in 10.0 mi North 5.8 mph - 0.04 in   Clear
11:52 AM 21.9 °F - 12.0 °F 66% 30.17 in 10.0 mi Calm Calm - N/A   Clear
12:52 PM 24.1 °F 19.7 °F 14.0 °F 65% 30.18 in 10.0 mi SSW 3.5 mph - N/A   Clear
1:52 PM 26.1 °F 21.9 °F 14.0 °F 60% 30.16 in 10.0 mi SSW 3.5 mph - N/A   Clear
2:52 PM 28.0 °F 22.8 °F 17.1 °F 63% 30.14 in 10.0 mi South 4.6 mph - N/A   Clear
3:52 PM 30.0 °F 23.2 °F 18.0 °F 61% 30.13 in 10.0 mi South 6.9 mph - N/A   Clear
4:52 PM 30.9 °F - 16.0 °F 54% 30.13 in 10.0 mi Calm Calm - N/A   Clear
5:52 PM 30.9 °F 26.2 °F 19.0 °F 61% 30.14 in 10.0 mi SSW 4.6 mph - N/A   Clear
6:52 PM 28.0 °F 24.2 °F 19.9 °F 72% 30.20 in 10.0 mi SW 3.5 mph - N/A   Clear
7:52 PM 24.1 °F - 17.1 °F 75% 30.27 in 10.0 mi Calm Calm - N/A   Clear
8:52 PM 21.9 °F 15.7 °F 15.1 °F 75% 30.31 in 10.0 mi West 4.6 mph - N/A   Clear
9:52 PM 19.9 °F - 15.1 °F 81% 30.30 in 10.0 mi Calm Calm - N/A   Clear
10:52 PM 18.0 °F - 14.0 °F 84% 30.27 in 10.0 mi Calm Calm - N/A   Clear
11:52 PM 17.1 °F 10.0 °F 12.9 °F 84% 30.30 in 10.0 mi West 4.6 mph - N/A   Clear
12:52 AM 12.9 °F - 10.9 °F 92% 30.31 in 10.0 mi Calm Calm - N/A   Clear